| time (UTC) | temp F | wind direction | speed MPH | gust MPH | rain 1hr in | rain 24hr in | rain mn in | humidity % | barometer mb |
| 20260509201126 | 62 | 299 | 0.0 | 16.0 | 0.00 | 0.38 | 0.38 | 68 | 1007.7 |
| 20260509200621 | 62 | 179 | 5.0 | 14.0 | 0.00 | 0.38 | 0.38 | 67 | 1007.4 |
| 20260509200117 | 62 | 265 | 2.0 | 9.0 | 0.00 | 0.38 | 0.38 | 71 | 1007.4 |
| 20260509195613 | 62 | 227 | 5.0 | 12.0 | 0.00 | 0.38 | 0.38 | 68 | 1007.7 |
| 20260509195107 | 63 | 190 | 3.0 | 13.0 | 0.00 | 0.38 | 0.38 | 69 | 1007.6 |
| 20260509194607 | 62 | 171 | 7.0 | 18.0 | 0.00 | 0.38 | 0.38 | 71 | 1007.8 |
| 20260509194105 | 62 | 262 | 9.0 | 11.0 | 0.00 | 0.38 | 0.38 | 71 | 1007.8 |
| 20260509193601 | 63 | 154 | 0.0 | 10.0 | 0.00 | 0.38 | 0.38 | 69 | 1007.8 |
| 20260509193057 | 62 | 258 | 3.0 | 7.0 | 0.00 | 0.38 | 0.38 | 71 | 1007.9 |
| 20260509192554 | 63 | 194 | 7.0 | 8.0 | 0.00 | 0.38 | 0.38 | 73 | 1008.0 |
| 20260509192048 | 61 | 214 | 7.0 | 15.0 | 0.00 | 0.38 | 0.38 | 71 | 1008.3 |
| 20260509191543 | 62 | 199 | 2.0 | 13.0 | 0.00 | 0.38 | 0.38 | 73 | 1008.1 |
| 20260509191039 | 60 | 229 | 5.0 | 9.0 | 0.00 | 0.38 | 0.38 | 74 | 1008.3 |
| 20260509190536 | 60 | 221 | 9.0 | 12.0 | 0.00 | 0.38 | 0.38 | 73 | 1008.5 |
| 20260509190034 | 62 | 270 | 4.0 | 11.0 | 0.00 | 0.38 | 0.38 | 74 | 1008.4 |
| 20260509185531 | 62 | 187 | 2.0 | 7.0 | 0.00 | 0.38 | 0.38 | 76 | 1008.3 |
| 20260509185027 | 60 | 251 | 11.0 | 14.0 | 0.00 | 0.38 | 0.38 | 77 | 1008.4 |
| 20260509184526 | 61 | 189 | 0.0 | 9.0 | 0.00 | 0.38 | 0.38 | 78 | 1008.2 |
| 20260509184022 | 60 | 228 | 4.0 | 15.0 | 0.00 | 0.38 | 0.38 | 78 | 1008.3 |
| 20260509183517 | 59 | 308 | 4.0 | 12.0 | 0.00 | 0.38 | 0.38 | 79 | 1008.3 |
| 20260509183013 | 60 | 155 | 6.0 | 17.0 | 0.00 | 0.38 | 0.38 | 78 | 1008.2 |
| 20260509182509 | 59 | 273 | 4.0 | 13.0 | 0.00 | 0.38 | 0.38 | 78 | 1008.2 |
| 20260509182007 | 60 | 280 | 5.0 | 14.0 | 0.00 | 0.38 | 0.38 | 80 | 1008.4 |
| 20260509181505 | 59 | 202 | 8.0 | 11.0 | 0.00 | 0.38 | 0.38 | 80 | 1008.2 |
| 20260509181002 | 59 | 220 | 6.0 | 6.0 | 0.00 | 0.38 | 0.38 | 81 | 1008.5 |
| 20260509180457 | 60 | 258 | 5.0 | 10.0 | 0.00 | 0.38 | 0.38 | 82 | 1008.7 |
| 20260509175955 | 59 | 198 | 3.0 | 7.0 | 0.00 | 0.38 | 0.38 | 83 | 1008.4 |
| 20260509175450 | 58 | 225 | 3.0 | 6.0 | 0.00 | 0.38 | 0.38 | 85 | 1008.7 |
| 20260509174947 | 58 | 187 | 4.0 | 4.0 | 0.00 | 0.38 | 0.38 | 84 | 1008.7 |
| 20260509174443 | 57 | 212 | 4.0 | 14.0 | 0.00 | 0.38 | 0.38 | 85 | 1008.7 |
| 20260509173938 | 57 | 188 | 3.0 | 7.0 | 0.00 | 0.38 | 0.38 | 86 | 1008.6 |
| 20260509173433 | 57 | 297 | 4.0 | 6.0 | 0.00 | 0.38 | 0.38 | 88 | 1008.6 |
| 20260509172930 | 57 | 187 | 5.0 | 9.0 | 0.00 | 0.38 | 0.38 | 91 | 1008.7 |
| 20260509172427 | 55 | 291 | 0.0 | 5.0 | 0.00 | 0.38 | 0.38 | 94 | 1008.6 |
| 20260509171922 | 54 | 197 | 5.0 | 6.0 | 0.00 | 0.38 | 0.38 | 97 | 1008.9 |
| 20260509171419 | 53 | 214 | 4.0 | 5.0 | 0.00 | 0.38 | 0.38 | 99 | 1008.7 |
| 20260509170915 | 52 | 188 | 3.0 | 6.0 | 0.00 | 0.38 | 0.38 | 99 | 1009.2 |
| 20260509170411 | 51 | 277 | 4.0 | 8.0 | 0.00 | 0.38 | 0.38 | 99 | 1009.2 |
| 20260509165907 | 51 | 270 | 1.0 | 2.0 | 0.00 | 0.38 | 0.38 | 99 | 1009.1 |
| 20260509165401 | 51 | 261 | 0.0 | 3.0 | 0.00 | 0.38 | 0.38 | 99 | 1009.0 |
| 20260509164857 | 51 | 216 | 0.0 | 4.0 | 0.00 | 0.38 | 0.38 | 99 | 1009.1 |
| 20260509164353 | 51 | 187 | 1.0 | 8.0 | 0.00 | 0.38 | 0.38 | 99 | 1009.1 |
| 20260509163849 | 51 | 275 | 4.0 | 6.0 | 0.00 | 0.38 | 0.38 | 99 | 1008.8 |
| 20260509163346 | 51 | 199 | 3.0 | 4.0 | 0.00 | 0.38 | 0.38 | 99 | 1009.0 |
| 20260509162845 | 51 | 253 | 0.0 | 5.0 | 0.00 | 0.38 | 0.38 | 99 | 1008.8 |
| 20260509162338 | 51 | 220 | 0.0 | 2.0 | 0.00 | 0.38 | 0.38 | 99 | 1008.9 |
| 20260509161835 | 51 | 187 | 2.0 | 4.0 | 0.00 | 0.38 | 0.38 | 99 | 1009.1 |
| 20260509161331 | 51 | 249 | 0.0 | 5.0 | 0.00 | 0.38 | 0.38 | 99 | 1008.9 |
| 20260509160826 | 50 | 237 | 1.0 | 4.0 | 0.00 | 0.38 | 0.38 | 99 | 1009.0 |
| 20260509160323 | 50 | 180 | 0.0 | 2.0 | 0.00 | 0.38 | 0.38 | 99 | 1008.9 |
| 20260509155818 | 50 | 221 | 0.0 | 6.0 | 0.00 | 0.38 | 0.38 | 99 | 1008.9 |
| 20260509155315 | 50 | 270 | 2.0 | 4.0 | 0.00 | 0.38 | 0.38 | 99 | 1008.9 |
| 20260509154811 | 50 | 199 | 4.0 | 4.0 | 0.00 | 0.38 | 0.38 | 99 | 1009.0 |
| 20260509154308 | 50 | 147 | 0.0 | 4.0 | 0.00 | 0.38 | 0.38 | 99 | 1008.5 |
| 20260509153805 | 51 | 191 | 3.0 | 3.0 | 0.00 | 0.38 | 0.38 | 99 | 1008.7 |
| 20260509153301 | 50 | 186 | 0.0 | 4.0 | 0.00 | 0.38 | 0.38 | 99 | 1008.8 |
| 20260509152758 | 50 | 190 | 2.0 | 6.0 | 0.00 | 0.38 | 0.38 | 99 | 1008.7 |
| 20260509152254 | 50 | 182 | 4.0 | 6.0 | 0.00 | 0.38 | 0.38 | 99 | 1008.7 |
| 20260509151751 | 50 | 180 | 0.0 | 4.0 | 0.00 | 0.38 | 0.38 | 99 | 1008.8 |
| 20260509151247 | 50 | 206 | 2.0 | 4.0 | 0.00 | 0.38 | 0.38 | 99 | 1009.0 |
| 20260509150746 | 50 | 157 | 2.0 | 6.0 | 0.00 | 0.38 | 0.38 | 99 | 1008.9 |
| 20260509150244 | 49 | 242 | 3.0 | 5.0 | 0.00 | 0.38 | 0.38 | 99 | 1008.5 |
| 20260509145741 | 49 | 206 | 2.0 | 5.0 | 0.00 | 0.38 | 0.38 | 99 | 1009.0 |
| 20260509145240 | 49 | 198 | 1.0 | 3.0 | 0.00 | 0.38 | 0.38 | 99 | 1008.8 |
| 20260509144737 | 49 | 203 | 1.0 | 7.0 | 0.00 | 0.38 | 0.38 | 99 | 1008.9 |
| 20260509144234 | 49 | 187 | 3.0 | 6.0 | 0.00 | 0.38 | 0.38 | 99 | 1008.8 |
| 20260509143731 | 49 | 190 | 2.0 | 4.0 | 0.00 | 0.38 | 0.38 | 99 | 1009.0 |
| 20260509143229 | 49 | 184 | 2.0 | 4.0 | 0.00 | 0.38 | 0.38 | 99 | 1008.9 |
| 20260509142724 | 48 | 185 | 2.0 | 2.0 | 0.00 | 0.38 | 0.38 | 99 | 1008.8 |
| 20260509142221 | 48 | 253 | 3.0 | 6.0 | 0.00 | 0.38 | 0.38 | 99 | 1008.7 |
| 20260509141716 | 48 | 319 | 2.0 | 4.0 | 0.00 | 0.38 | 0.38 | 99 | 1008.9 |
| 20260509141214 | 48 | 180 | 2.0 | 3.0 | 0.00 | 0.38 | 0.38 | 99 | 1008.7 |
| 20260509140710 | 48 | 281 | 2.0 | 4.0 | 0.00 | 0.38 | 0.38 | 99 | 1008.7 |
| 20260509140208 | 48 | 222 | 3.0 | 3.0 | 0.00 | 0.38 | 0.38 | 99 | 1008.7 |
| 20260509135705 | 48 | 220 | 0.0 | 4.0 | 0.00 | 0.38 | 0.38 | 99 | 1008.7 |
| 20260509135203 | 48 | 216 | 2.0 | 5.0 | 0.00 | 0.38 | 0.38 | 99 | 1008.8 |
| 20260509134659 | 48 | 232 | 3.0 | 7.0 | 0.00 | 0.38 | 0.38 | 99 | 1008.9 |
| 20260509134157 | 48 | 212 | 0.0 | 5.0 | 0.00 | 0.38 | 0.38 | 99 | 1008.9 |
| 20260509133654 | 48 | 135 | 3.0 | 4.0 | 0.00 | 0.38 | 0.38 | 99 | 1009.0 |
| 20260509133151 | 48 | 195 | 0.0 | 3.0 | 0.00 | 0.38 | 0.38 | 99 | 1009.0 |
| 20260509132649 | 48 | 261 | 0.0 | 4.0 | 0.00 | 0.38 | 0.38 | 99 | 1009.0 |
| 20260509132147 | 48 | 180 | 2.0 | 2.0 | 0.00 | 0.38 | 0.38 | 99 | 1009.2 |
| 20260509131643 | 48 | 166 | 2.0 | 5.0 | 0.00 | 0.38 | 0.38 | 99 | 1009.0 |
| 20260509131140 | 48 | 176 | 2.0 | 3.0 | 0.00 | 0.38 | 0.38 | 99 | 1009.0 |
| 20260509130636 | 48 | 208 | 3.0 | 4.0 | 0.00 | 0.38 | 0.38 | 99 | 1008.9 |
| 20260509130132 | 47 | 208 | 3.0 | 5.0 | 0.00 | 0.38 | 0.38 | 99 | 1008.6 |
| 20260509125629 | 47 | 177 | 3.0 | 4.0 | 0.00 | 0.38 | 0.38 | 99 | 1008.9 |
| 20260509125126 | 47 | 166 | 0.0 | 4.0 | 0.00 | 0.38 | 0.38 | 99 | 1009.0 |
| 20260509124622 | 47 | 233 | 3.0 | 4.0 | 0.02 | 0.38 | 0.38 | 99 | 1008.9 |
| 20260509124119 | 47 | 124 | 2.0 | 7.0 | 0.05 | 0.38 | 0.38 | 99 | 1009.1 |
| 20260509123617 | 47 | 177 | 3.0 | 4.0 | 0.02 | 0.37 | 0.37 | 99 | 1008.8 |
| 20260509123114 | 47 | 150 | 2.0 | 5.0 | 0.00 | 0.37 | 0.37 | 99 | 1009.3 |
| 20260509122610 | 47 | 180 | 0.0 | 4.0 | 0.00 | 0.37 | 0.37 | 99 | 1009.1 |
| 20260509122107 | 47 | 101 | 2.0 | 5.0 | 0.00 | 0.37 | 0.37 | 99 | 1009.3 |
| 20260509121603 | 47 | 195 | 0.0 | 2.0 | 0.00 | 0.37 | 0.37 | 99 | 1009.2 |
| 20260509121101 | 47 | 270 | 0.0 | 3.0 | 0.00 | 0.37 | 0.37 | 99 | 1009.6 |
| 20260509120559 | 47 | 251 | 0.0 | 0.0 | 0.00 | 0.37 | 0.37 | 99 | 1009.2 |
| 20260509120057 | 47 | 173 | 2.0 | 4.0 | 0.00 | 0.37 | 0.37 | 99 | 1009.2 |
| 20260509115554 | 47 | 165 | 3.0 | 3.0 | 0.00 | 0.37 | 0.37 | 99 | 1009.3 |
| 20260509115052 | 47 | 177 | 2.0 | 5.0 | 0.00 | 0.37 | 0.37 | 99 | 1009.1 |
| 20260509114550 | 47 | 131 | 0.0 | 7.0 | 0.00 | 0.37 | 0.37 | 99 | 1009.2 |
| 20260509114048 | 47 | 90 | 0.0 | 4.0 | 0.00 | 0.37 | 0.37 | 99 | 1009.2 |
| 20260509113546 | 47 | 114 | 1.0 | 2.0 | 0.00 | 0.37 | 0.37 | 99 | 1009.3 |
| 20260509113044 | 47 | 180 | 2.0 | 4.0 | 0.00 | 0.37 | 0.37 | 99 | 1009.3 |
| 20260509112540 | 47 | 166 | 1.0 | 5.0 | 0.00 | 0.37 | 0.37 | 99 | 1009.4 |
| 20260509112037 | 47 | 155 | 3.0 | 4.0 | 0.00 | 0.37 | 0.37 | 99 | 1009.3 |
| 20260509111534 | 47 | 148 | 0.0 | 3.0 | 0.00 | 0.37 | 0.37 | 99 | 1009.1 |
| 20260509111031 | 47 | 180 | 2.0 | 3.0 | 0.00 | 0.37 | 0.37 | 99 | 1009.1 |
| 20260509110528 | 46 | 164 | 2.0 | 4.0 | 0.00 | 0.37 | 0.37 | 99 | 1009.2 |
| 20260509110025 | 46 | 185 | 0.0 | 3.0 | 0.00 | 0.37 | 0.37 | 99 | 1009.3 |
| 20260509105523 | 46 | 194 | 1.0 | 5.0 | 0.00 | 0.37 | 0.37 | 99 | 1009.2 |
| 20260509105020 | 46 | 173 | 0.0 | 4.0 | 0.00 | 0.37 | 0.37 | 99 | 1009.4 |
| 20260509104517 | 46 | 180 | 1.0 | 2.0 | 0.00 | 0.37 | 0.37 | 99 | 1009.2 |
| 20260509104014 | 46 | 174 | 0.0 | 4.0 | 0.02 | 0.37 | 0.37 | 99 | 1009.4 |
| 20260509103512 | 46 | 33 | 3.0 | 4.0 | 0.07 | 0.37 | 0.37 | 99 | 1009.3 |
| 20260509103010 | 46 | 177 | 0.0 | 3.0 | 0.09 | 0.37 | 0.37 | 99 | 1009.3 |
| 20260509102507 | 46 | 180 | 0.0 | 2.0 | 0.07 | 0.36 | 0.36 | 99 | 1009.1 |
| 20260509102003 | 46 | 90 | 1.0 | 3.0 | 0.07 | 0.35 | 0.35 | 99 | 1009.1 |
| 20260509101500 | 46 | 128 | 2.0 | 5.0 | 0.09 | 0.35 | 0.35 | 99 | 1009.3 |
| 20260509100957 | 46 | 150 | 0.0 | 3.0 | 0.12 | 0.34 | 0.34 | 99 | 1009.3 |
| 20260509100454 | 46 | 147 | 2.0 | 6.0 | 0.14 | 0.33 | 0.33 | 99 | 1009.2 |
| 20260509095951 | 46 | 177 | 3.0 | 4.0 | 0.12 | 0.32 | 0.32 | 99 | 1009.3 |
| 20260509095448 | 46 | 180 | 0.0 | 4.0 | 0.07 | 0.30 | 0.30 | 99 | 1009.4 |
| 20260509094945 | 46 | 170 | 3.0 | 4.0 | 0.02 | 0.29 | 0.29 | 99 | 1009.4 |
| 20260509094441 | 46 | 188 | 3.0 | 7.0 | 0.00 | 0.29 | 0.29 | 99 | 1009.4 |
| 20260509093939 | 46 | 180 | 2.0 | 5.0 | 0.02 | 0.29 | 0.29 | 99 | 1009.2 |
| 20260509093436 | 46 | 192 | 0.0 | 3.0 | 0.02 | 0.29 | 0.29 | 99 | 1009.3 |
| 20260509092934 | 46 | 180 | 1.0 | 4.0 | 0.00 | 0.29 | 0.29 | 99 | 1009.7 |
| 20260509092432 | 46 | 186 | 4.0 | 5.0 | 0.00 | 0.29 | 0.29 | 99 | 1009.4 |
| 20260509091931 | 46 | 135 | 2.0 | 4.0 | 0.00 | 0.29 | 0.29 | 99 | 1009.4 |
| 20260509091427 | 46 | 265 | 3.0 | 4.0 | 0.05 | 0.29 | 0.29 | 99 | 1009.6 |
| 20260509090924 | 46 | 162 | 1.0 | 4.0 | 0.07 | 0.28 | 0.28 | 99 | 1009.3 |
| 20260509090421 | 46 | 126 | 0.0 | 5.0 | 0.07 | 0.28 | 0.28 | 99 | 1009.4 |
| 20260509085919 | 46 | 213 | 2.0 | 5.0 | 0.07 | 0.27 | 0.27 | 99 | 1009.4 |
| 20260509085416 | 46 | 144 | 3.0 | 7.0 | 0.07 | 0.27 | 0.27 | 99 | 1009.3 |
| 20260509084912 | 46 | 143 | 2.0 | 7.0 | 0.12 | 0.26 | 0.26 | 99 | 1009.7 |
| 20260509084409 | 46 | 182 | 3.0 | 4.0 | 0.14 | 0.26 | 0.26 | 99 | 1009.4 |
| 20260509083906 | 46 | 180 | 3.0 | 6.0 | 0.07 | 0.24 | 0.24 | 99 | 1009.7 |
| 20260509083403 | 46 | 159 | 2.0 | 3.0 | 0.07 | 0.23 | 0.23 | 99 | 1009.6 |
| 20260509082900 | 46 | 154 | 3.0 | 4.0 | 0.09 | 0.23 | 0.23 | 99 | 1009.6 |
| 20260509082357 | 46 | 147 | 2.0 | 5.0 | 0.07 | 0.22 | 0.22 | 99 | 1009.6 |
| 20260509081854 | 46 | 173 | 1.0 | 3.0 | 0.02 | 0.21 | 0.21 | 99 | 1009.6 |
| 20260509081351 | 46 | 190 | 2.0 | 5.0 | 0.05 | 0.21 | 0.21 | 99 | 1009.4 |
| 20260509080849 | 46 | 168 | 0.0 | 2.0 | 0.07 | 0.20 | 0.20 | 99 | 1009.6 |
| 20260509080346 | 46 | 145 | 1.0 | 4.0 | 0.07 | 0.20 | 0.20 | 99 | 1009.7 |
| 20260509075844 | 46 | 131 | 0.0 | 4.0 | 0.09 | 0.19 | 0.19 | 99 | 1009.6 |
| 20260509075341 | 46 | 180 | 0.0 | 3.0 | 0.14 | 0.19 | 0.19 | 99 | 1009.6 |
| 20260509074838 | 46 | 120 | 1.0 | 3.0 | 0.19 | 0.18 | 0.18 | 99 | 1009.9 |
| 20260509074336 | 46 | 158 | 4.0 | 4.0 | 0.12 | 0.17 | 0.17 | 99 | 1009.9 |
| 20260509073832 | 46 | 203 | 0.0 | 2.0 | 0.02 | 0.15 | 0.15 | 99 | 1009.7 |
| 20260509073329 | 46 | 159 | 0.0 | 3.0 | 0.02 | 0.15 | 0.15 | 99 | 1009.7 |
| 20260509072825 | 46 | 165 | 0.0 | 3.0 | 0.02 | 0.14 | 0.14 | 99 | 1009.8 |
| 20260509072322 | 46 | 162 | 2.0 | 3.0 | 0.07 | 0.14 | 0.14 | 99 | 1009.8 |
| 20260509071819 | 46 | 180 | 2.0 | 3.0 | 0.09 | 0.14 | 0.14 | 99 | 1009.6 |
| 20260509071316 | 46 | 141 | 2.0 | 3.0 | 0.12 | 0.13 | 0.13 | 99 | 1009.6 |
| 20260509070813 | 46 | 120 | 1.0 | 4.0 | 0.12 | 0.12 | 0.12 | 99 | 1009.8 |
| 20260509070310 | 46 | 157 | 0.0 | 2.0 | 0.07 | 0.11 | 0.11 | 99 | 1009.8 |
| 20260509065806 | 46 | 121 | 2.0 | 3.0 | 0.07 | 0.10 | 0.10 | 99 | 1009.8 |
| 20260509065305 | 46 | 162 | 2.0 | 2.0 | 0.09 | 0.10 | 0.10 | 99 | 1010.0 |
| 20260509064758 | 46 | 115 | 2.0 | 4.0 | 0.05 | 0.09 | 0.09 | 99 | 1010.2 |
| 20260509064256 | 46 | 195 | 0.0 | 4.0 | 0.05 | 0.08 | 0.08 | 99 | 1010.4 |
| 20260509063753 | 46 | 160 | 0.0 | 3.0 | 0.05 | 0.08 | 0.08 | 99 | 1010.3 |
| 20260509063249 | 46 | 146 | 1.0 | 3.0 | 0.02 | 0.07 | 0.07 | 99 | 1010.6 |
| 20260509062747 | 46 | 126 | 0.0 | 3.0 | 0.00 | 0.07 | 0.07 | 99 | 1010.5 |
| 20260509062243 | 46 | 140 | 0.0 | 3.0 | 0.00 | 0.07 | 0.07 | 99 | 1010.7 |
| 20260509061740 | 46 | 154 | 0.0 | 2.0 | 0.02 | 0.07 | 0.07 | 99 | 1010.6 |
| 20260509061239 | 46 | 157 | 0.0 | 2.0 | 0.05 | 0.07 | 0.07 | 99 | 1010.6 |
| 20260509060736 | 46 | 240 | 0.0 | 3.0 | 0.02 | 0.07 | 0.07 | 99 | 1010.6 |
| 20260509060232 | 46 | 157 | 0.0 | 3.0 | 0.02 | 0.06 | 0.06 | 99 | 1011.0 |
| 20260509055728 | 46 | 128 | 0.0 | 2.0 | 0.02 | 0.06 | 0.06 | 99 | 1010.9 |
| 20260509055224 | 46 | 162 | 1.0 | 3.0 | 0.00 | 0.06 | 0.06 | 99 | 1010.9 |
| 20260509054720 | 46 | 200 | 3.0 | 4.0 | 0.02 | 0.06 | 0.06 | 99 | 1011.0 |
| 20260509054217 | 46 | 171 | 2.0 | 3.0 | 0.02 | 0.06 | 0.06 | 99 | 1011.3 |
| 20260509053716 | 46 | 175 | 3.0 | 3.0 | 0.02 | 0.06 | 0.06 | 99 | 1011.1 |
| 20260509053212 | 46 | 229 | 1.0 | 5.0 | 0.05 | 0.06 | 0.06 | 99 | 1011.1 |
| 20260509052710 | 46 | 174 | 0.0 | 5.0 | 0.05 | 0.05 | 0.05 | 99 | 1011.4 |
| 20260509052208 | 46 | 112 | 3.0 | 5.0 | 0.05 | 0.05 | 0.05 | 99 | 1011.7 |
| 20260509051705 | 46 | 185 | 1.0 | 5.0 | 0.05 | 0.04 | 0.04 | 99 | 1011.8 |
| 20260509051203 | 46 | 248 | 3.0 | 3.0 | 0.02 | 0.04 | 0.04 | 99 | 1011.9 |
| 20260509050700 | 46 | 260 | 3.0 | 5.0 | 0.02 | 0.04 | 0.04 | 99 | 1011.7 |
| 20260509050156 | 46 | 103 | 1.0 | 4.0 | 0.02 | 0.04 | 0.04 | 99 | 1011.7 |
| 20260509045653 | 46 | 195 | 2.0 | 4.0 | 0.00 | 0.03 | 0.03 | 99 | 1011.5 |
| 20260509045150 | 46 | 181 | 6.0 | 6.0 | 0.00 | 0.03 | 0.03 | 99 | 1011.4 |
| 20260509044647 | 46 | 160 | 1.0 | 4.0 | 0.00 | 0.03 | 0.03 | 99 | 1011.5 |
| 20260509044145 | 46 | 215 | 1.0 | 4.0 | 0.00 | 0.03 | 0.03 | 99 | 1011.9 |
| 20260509043641 | 46 | 240 | 5.0 | 5.0 | 0.00 | 0.03 | 0.03 | 99 | 1011.8 |
| 20260509043137 | 46 | 170 | 2.0 | 3.0 | 0.00 | 0.03 | 0.03 | 99 | 1011.4 |
| 20260509042634 | 46 | 157 | 0.0 | 4.0 | 0.02 | 0.03 | 0.03 | 99 | 1011.8 |
| 20260509042129 | 46 | 150 | 2.0 | 3.0 | 0.05 | 0.03 | 0.03 | 99 | 1012.1 |
| 20260509041626 | 46 | 139 | 0.0 | 3.0 | 0.09 | 0.03 | 0.03 | 99 | 1011.9 |
| 20260509041124 | 46 | 180 | 2.0 | 5.0 | 0.12 | 0.02 | 0.02 | 99 | 1012.1 |
| 20260509040622 | 46 | 198 | 1.0 | 6.0 | 0.09 | 0.01 | 0.01 | 99 | 1012.0 |
| 20260509040119 | 46 | 169 | 4.0 | 6.0 | 0.05 | 0.43 | 0.43 | 99 | 1012.1 |
| 20260509035616 | 46 | 239 | 1.0 | 4.0 | 0.05 | 0.43 | 0.43 | 99 | 1012.2 |
| 20260509035112 | 46 | 18 | 1.0 | 3.0 | 0.02 | 0.42 | 0.42 | 99 | 1012.3 |
| 20260509034610 | 46 | 180 | 1.0 | 5.0 | 0.02 | 0.42 | 0.42 | 99 | 1012.0 |
| 20260509034107 | 46 | 327 | 0.0 | 2.0 | 0.05 | 0.42 | 0.42 | 99 | 1012.2 |
| 20260509033604 | 46 | 147 | 2.0 | 4.0 | 0.05 | 0.42 | 0.42 | 99 | 1012.1 |
| 20260509033101 | 46 | 135 | 0.0 | 2.0 | 0.07 | 0.41 | 0.41 | 99 | 1011.9 |
| 20260509032558 | 46 | 151 | 0.0 | 3.0 | 0.05 | 0.41 | 0.41 | 99 | 1012.2 |
| 20260509032055 | 46 | 180 | 3.0 | 3.0 | 0.02 | 0.40 | 0.40 | 99 | 1012.2 |
| 20260509031553 | 46 | 174 | 3.0 | 3.0 | 0.07 | 0.40 | 0.40 | 99 | 1012.4 |
| 20260509031050 | 46 | 157 | 1.0 | 2.0 | 0.09 | 0.40 | 0.40 | 99 | 1012.4 |
| 20260509030548 | 46 | 151 | 1.0 | 3.0 | 0.09 | 0.39 | 0.39 | 99 | 1012.2 |
| 20260509030044 | 46 | 126 | 0.0 | 3.0 | 0.09 | 0.38 | 0.38 | 99 | 1012.6 |
| 20260509025541 | 46 | 228 | 2.0 | 3.0 | 0.09 | 0.37 | 0.37 | 99 | 1012.8 |
| 20260509025036 | 46 | 145 | 1.0 | 2.0 | 0.09 | 0.37 | 0.37 | 99 | 1012.5 |
| 20260509024532 | 46 | 169 | 2.0 | 2.0 | 0.12 | 0.36 | 0.36 | 99 | 1012.7 |
| 20260509024029 | 46 | 173 | 0.0 | 2.0 | 0.12 | 0.35 | 0.35 | 99 | 1012.7 |
| 20260509023527 | 46 | 120 | 0.0 | 1.0 | 0.07 | 0.34 | 0.34 | 99 | 1012.7 |
| 20260509023023 | 46 | 114 | 1.0 | 2.0 | 0.05 | 0.33 | 0.33 | 99 | 1012.6 |
| 20260509022520 | 46 | 165 | 0.0 | 0.0 | 0.02 | 0.32 | 0.32 | 99 | 1012.7 |
| 20260509022018 | 46 | 123 | 1.0 | 3.0 | 0.02 | 0.32 | 0.32 | 99 | 1012.7 |
| 20260509021514 | 46 | 123 | 0.0 | 1.0 | 0.02 | 0.32 | 0.32 | 99 | 1012.5 |
| 20260509021011 | 46 | 154 | 0.0 | 2.0 | 0.05 | 0.32 | 0.32 | 99 | 1012.5 |
| 20260509020510 | 46 | 173 | 1.0 | 2.0 | 0.07 | 0.32 | 0.32 | 99 | 1012.6 |
| 20260509020006 | 46 | 145 | 0.0 | 2.0 | 0.09 | 0.31 | 0.31 | 99 | 1012.6 |
| 20260509015505 | 46 | 106 | 0.0 | 1.0 | 0.09 | 0.30 | 0.30 | 99 | 1012.6 |
| 20260509015002 | 46 | 157 | 0.0 | 1.0 | 0.09 | 0.29 | 0.29 | 99 | 1012.6 |
| 20260509014459 | 46 | 120 | 1.0 | 3.0 | 0.09 | 0.28 | 0.28 | 99 | 1012.5 |
| 20260509013954 | 46 | 126 | 0.0 | 2.0 | 0.14 | 0.28 | 0.28 | 99 | 1012.5 |
| 20260509013452 | 46 | 234 | 1.0 | 2.0 | 0.12 | 0.26 | 0.26 | 99 | 1012.6 |
| 20260509012947 | 46 | 123 | 0.0 | 2.0 | 0.09 | 0.25 | 0.25 | 99 | 1012.1 |
| 20260509012444 | 46 | 180 | 0.0 | 0.0 | 0.09 | 0.24 | 0.24 | 99 | 1012.3 |
| 20260509011941 | 46 | 135 | 0.0 | 2.0 | 0.09 | 0.24 | 0.24 | 99 | 1012.2 |
| 20260509011439 | 46 | 66 | 0.0 | 2.0 | 0.12 | 0.23 | 0.23 | 99 | 1011.9 |
| 20260509010936 | 46 | 114 | 0.0 | 3.0 | 0.07 | 0.22 | 0.22 | 99 | 1012.2 |
| 20260509010434 | 46 | 187 | 0.0 | 2.0 | 0.02 | 0.21 | 0.21 | 99 | 1011.8 |
| 20260509005930 | 46 | 185 | 0.0 | 2.0 | 0.02 | 0.20 | 0.20 | 98 | 1012.0 |
| 20260509005428 | 47 | 175 | 2.0 | 3.0 | 0.02 | 0.20 | 0.20 | 98 | 1011.8 |
| 20260509004923 | 47 | 180 | 2.0 | 2.0 | 0.00 | 0.20 | 0.20 | 98 | 1011.7 |
| 20260509004420 | 47 | 106 | 0.0 | 2.0 | 0.05 | 0.20 | 0.20 | 98 | 1011.8 |
| 20260509003918 | 47 | 180 | 0.0 | 2.0 | 0.12 | 0.20 | 0.20 | 98 | 1012.1 |
| 20260509003415 | 47 | 148 | 3.0 | 4.0 | 0.17 | 0.19 | 0.19 | 97 | 1012.2 |
| 20260509002911 | 47 | 219 | 3.0 | 3.0 | 0.14 | 0.18 | 0.18 | 97 | 1012.2 |
| 20260509002410 | 47 | 198 | 2.0 | 3.0 | 0.12 | 0.17 | 0.17 | 96 | 1012.0 |
| 20260509001907 | 47 | 257 | 3.0 | 4.0 | 0.05 | 0.15 | 0.15 | 96 | 1012.0 |
| 20260509001403 | 47 | 194 | 2.0 | 5.0 | 0.05 | 0.15 | 0.15 | 96 | 1011.9 |
| 20260509000900 | 48 | 270 | 0.0 | 3.0 | 0.02 | 0.14 | 0.14 | 97 | 1012.2 |
| 20260509000358 | 48 | 240 | 0.0 | 2.0 | 0.02 | 0.14 | 0.14 | 97 | 1011.9 |
| 20260508235853 | 47 | 189 | 2.0 | 5.0 | 0.02 | 0.14 | 0.14 | 97 | 1011.8 |
| 20260508235351 | 48 | 228 | 2.0 | 2.0 | 0.02 | 0.13 | 0.13 | 98 | 1011.7 |
| 20260508234848 | 48 | 162 | 0.0 | 2.0 | 0.02 | 0.13 | 0.13 | 98 | 1011.9 |
| 20260508234344 | 48 | 154 | 0.0 | 3.0 | 0.05 | 0.13 | 0.13 | 98 | 1011.5 |
| 20260508233843 | 48 | 135 | 2.0 | 2.0 | 0.02 | 0.13 | 0.13 | 98 | 1011.8 |
| 20260508233342 | 48 | 171 | 2.0 | 2.0 | 0.00 | 0.12 | 0.12 | 98 | 1011.7 |
| 20260508232838 | 48 | 173 | 1.0 | 2.0 | 0.02 | 0.12 | 0.12 | 98 | 1011.5 |
| 20260508232334 | 49 | 180 | 0.0 | 2.0 | 0.02 | 0.12 | 0.12 | 98 | 1011.5 |
| 20260508231833 | 49 | 165 | 0.0 | 0.0 | 0.00 | 0.12 | 0.12 | 98 | 1011.3 |
| 20260508231329 | 49 | 173 | 0.0 | 2.0 | 0.00 | 0.12 | 0.12 | 98 | 1011.5 |
| 20260508230826 | 49 | 180 | 1.0 | 2.0 | 0.02 | 0.12 | 0.12 | 98 | 1011.3 |
| 20260508230322 | 49 | 225 | 2.0 | 3.0 | 0.05 | 0.12 | 0.12 | 98 | 1011.5 |
| 20260508225820 | 49 | 270 | 0.0 | 2.0 | 0.05 | 0.11 | 0.11 | 98 | 1011.3 |
| 20260508225316 | 49 | 220 | 3.0 | 5.0 | 0.02 | 0.11 | 0.11 | 97 | 1011.5 |
| 20260508224815 | 49 | 199 | 4.0 | 4.0 | 0.00 | 0.11 | 0.11 | 97 | 1011.8 |
| 20260508224312 | 49 | 219 | 3.0 | 3.0 | 0.00 | 0.11 | 0.11 | 97 | 1011.7 |
| 20260508223809 | 49 | 180 | 1.0 | 2.0 | 0.00 | 0.11 | 0.11 | 97 | 1011.4 |
| 20260508223307 | 49 | 291 | 0.0 | 3.0 | 0.00 | 0.11 | 0.11 | 97 | 1011.5 |
| 20260508222804 | 49 | 186 | 1.0 | 3.0 | 0.02 | 0.11 | 0.11 | 97 | 1011.4 |
| 20260508222301 | 49 | 11 | 0.0 | 1.0 | 0.07 | 0.11 | 0.11 | 96 | 1011.2 |
| 20260508221757 | 49 | 152 | 2.0 | 3.0 | 0.21 | 0.10 | 0.10 | 96 | 1011.4 |
| 20260508221253 | 49 | 166 | 0.0 | 5.0 | 0.28 | 0.09 | 0.09 | 95 | 1011.7 |
| 20260508220750 | 50 | 260 | 4.0 | 6.0 | 0.17 | 0.06 | 0.06 | 93 | 1011.5 |
| 20260508220247 | 50 | 229 | 4.0 | 7.0 | 0.09 | 0.04 | 0.04 | 91 | 1011.5 |
| 20260508215742 | 51 | 213 | 0.0 | 3.0 | 0.07 | 0.03 | 0.03 | 89 | 1011.7 |
| 20260508215239 | 51 | 172 | 2.0 | 7.0 | 0.02 | 0.02 | 0.02 | 86 | 1011.2 |
| 20260508214737 | 52 | 247 | 4.0 | 11.0 | 0.00 | 0.02 | 0.02 | 84 | 1011.3 |
| 20260508214234 | 52 | 186 | 1.0 | 6.0 | 0.00 | 0.02 | 0.02 | 84 | 1011.1 |
| 20260508213730 | 52 | 210 | 5.0 | 8.0 | 0.00 | 0.02 | 0.02 | 81 | 1011.1 |
| 20260508213227 | 53 | 200 | 5.0 | 10.0 | 0.00 | 0.02 | 0.02 | 80 | 1011.0 |
| 20260508212724 | 53 | 291 | 1.0 | 10.0 | 0.00 | 0.02 | 0.02 | 79 | 1011.2 |
| 20260508212220 | 53 | 193 | 4.0 | 9.0 | 0.00 | 0.02 | 0.02 | 78 | 1011.1 |
| 20260508211715 | 53 | 218 | 5.0 | 14.0 | 0.00 | 0.02 | 0.02 | 78 | 1011.2 |
| 20260508211211 | 53 | 249 | 9.0 | 9.0 | 0.00 | 0.02 | 0.02 | 78 | 1011.0 |
| 20260508210709 | 53 | 237 | 5.0 | 10.0 | 0.00 | 0.02 | 0.02 | 78 | 1011.3 |
| 20260508210206 | 53 | 251 | 5.0 | 9.0 | 0.00 | 0.02 | 0.02 | 77 | 1011.1 |
| 20260508205702 | 53 | 229 | 8.0 | 9.0 | 0.00 | 0.02 | 0.02 | 76 | 1011.2 |
| 20260508205159 | 53 | 236 | 7.0 | 7.0 | 0.00 | 0.02 | 0.02 | 75 | 1011.0 |
| 20260508204655 | 53 | 221 | 7.0 | 11.0 | 0.00 | 0.02 | 0.02 | 74 | 1011.0 |
| 20260508204151 | 53 | 236 | 4.0 | 6.0 | 0.00 | 0.02 | 0.02 | 76 | 1011.1 |
| 20260508203648 | 52 | 207 | 3.0 | 24.0 | 0.00 | 0.02 | 0.02 | 75 | 1011.3 |
| 20260508203144 | 53 | 209 | 6.0 | 18.0 | 0.00 | 0.02 | 0.02 | 74 | 1011.3 |
| 20260508202640 | 54 | 251 | 4.0 | 10.0 | 0.00 | 0.02 | 0.02 | 72 | 1011.3 |
| 20260508202138 | 55 | 183 | 2.0 | 7.0 | 0.00 | 0.02 | 0.02 | 72 | 1011.0 |
| 20260508201634 | 56 | 241 | 21.0 | 21.0 | 0.00 | 0.02 | 0.02 | 66 | 1010.7 |